www.pogodaiklimat.ru

Погода и климат >> Архив погоды >> Россия >> Иркутская область >> Новая Игирма


ПОГОДА в Новой Игирме

АРХИВ ПОГОДЫ в Новой Игирме

Время (UTC), дата Ветер
(напр.,м/с)
 
Видим.   Явления Облачность Т
(С)
Тd
(С)
f
(%)
Тe
(С)
Тes
(С)
Комфортность P
(гПа)
Po
(гПа)
Тmin
(С)
Tmax
(С)
R
(мм)
R24
(мм)
S
(см)
00 12.09 ЮЗ 3 50 км {ливн. осадки} 10/10 600 м
[Cb cap]
+9.1 +7.3 88 +7 +7 1006.9 968.5 +7.9 0.4
03 12.09 З 7-12
{13}
50 км в посл. час ливневой дождь 8/8 600 м
[Cb cap]
+10.7 +4.8 67 +7 +8 1008.0 969.7
06 12.09 З 7-11
{14}
50 км в посл. час ливневой дождь 9/9 600 м
[Cb cap]
+10.5 +1.3 53 +7 +8 1009.6 971.2
09 12.09 З 4
{12}
50 км слаб. ливневой дождь 10/10 600 м
[Cb cap]
+7.4 +2.4 71 +4 +4 1011.6 972.7
12 12.09 З 2
{11}
н/о {ливн. осадки} 3/3 600 м
[Cb cap]
+4.6 -1.6 64 +2 +2 1014.3 974.9 +11.3 0.0
15 12.09 ЮЗ 2 н/о 3/3 600 м
[Cb cap]
+3.1 -3.0 64 +1 +1 1015.7 976.0
18 12.09 Ю 2 н/о 6/6 600 м
[Cb cap]
+0.8 -3.0 76 -3 -3 1015.7 975.7
21 12.09 Ю 3 н/о ясно -0.8 -3.6 81 -6 -6 1014.6 974.4
00 13.09 ЮЗ 4 50 км 10/10 600 м
[Cb cap]
+1.0 -2.5 77 -4 -4 1012.7 972.8 -1.0
03 13.09 ЮЗ 4-10
{10}
50 км слаб. ливневой дождь 10/10 600 м
[Cb cap]
+4.4 +0.1 74 0 0 1009.4 970.1
06 13.09 ЮЗ 5
{14}
50 км {ливн. осадки} 10/10 600 м
[Cb cap]
+7.5 +0.1 59 +4 +4 1006.5 967.8
09 13.09 З 4
{12}
50 км в посл. час ливневой дождь 8/8 600 м
[Cb cap]
+5.7 +2.5 80 +2 +2 1007.3 968.3
12 13.09 ЮЗ 3
{13}
н/о в посл. час ливневой дождь 3/3 600 м
[Cb cap]
+4.8 +0.5 74 +1 +1 1007.5 968.4 +7.6 2
15 13.09 ЮЗ 4 н/о 8/5 600 м
[Cb cap Ac trans]
+3.0 -0.3 79 -2 -2 1007.2 967.9
18 13.09 ЮЗ 5-10
{11}
н/о 10/8 600 м
[Cb cap Ac As]
+3.7 -0.2 76 -1 -1 1005.3 966.2
21 13.09 З 5
{12}
н/о слаб. ливневой снег 10/10 600 м
[Cb cap]
+0.8 -0.2 93 -5 -5 1004.6 965.0
00 14.09 ЮЗ 6-10
{12}
4000 м слаб. ливневой снег 10/10 600 м
[Cb cap]
+1.0 -0.4 90 -5 -5 1003.7 964.2 +0.8 3
03 14.09 З 7-15
{15}
50 км {ливн. осадки} 10/10 600 м
[Cb cap]
+0.4 -3.7 74 -6 -6 1006.5 966.8
06 14.09 З 7-13
{16}
50 км слаб. ливневой снег 10/10 600 м
[Cb cap]
+0.6 -1.9 83 -6 -6 1010.1 970.3
09 14.09 З 5-10
{15}
50 км {ливн. осадки} 8/8 600 м
[Cb cap]
+2.7 -4.8 58 -2 -2 1014.4 974.7
12 14.09 З 3
{10}
н/о {ливн. осадки} 10/4 600 м
[Cb cap Ac lent Cc]
+2.2 -4.0 64 -2 -2 1016.3 976.5 +2.8 2
15 14.09 ЮЗ 3 н/о 10/3 600 м
[Cb cap Cs]
+1.2 -4.3 67 -3 -3 1016.7 976.7
18 14.09 ЮЗ 3 н/о 8/0
[Ac As Ci fib]
+1.1 -2.9 75 -3 -3 1016.4 976.4
21 14.09 ЮЗ 3 н/о 10/8 600 м
[Cb cap Ac trans]
+0.8 -2.2 80 -4 -4 1015.9 975.9
00 15.09 ЮЗ 2 50 км 10/10 600 м
[Cb cap]
+1.4 -1.1 83 -2 -2 1015.4 975.5 -0.4
09 15.09 Ю 2 50 км в посл. час ливневой дождь 10/10 600 м
[Cb cap]
+4.4 +2.6 88 +2 +2 1010.9 971.7
12 15.09 Ю 2 н/о слаб. ливневой дождь 10/10 600 м
[Cb cap]
+4.2 +2.9 91 +1 +1 1010.3 971.0 +4.8 1
15 15.09 З 2 н/о {ливн. осадки} 10/10 600 м
[Cb cap]
+4.7 +2.7 87 +2 +2 1010.3 971.1
18 15.09 З 2 н/о {ливн. осадки} 10/10 600 м
[Cb cap]
+3.7 +2.0 89 +1 +1 1010.8 971.4
21 15.09 З 3 н/о 9/9 600 м
[Cb cap]
+2.5 +1.3 92 -2 -2 1012.5 972.9
00 16.09 З 3 50 км {ливн. осадки} 3/3 600 м
[Cb cap]
+2.6 +0.5 86 -2 -1 1014.4 974.7 +1.1 2
03 16.09 З 4 50 км 10/10 600 м
[Cb cap]
+4.1 +0.1 75 -0 -0 1016.1 976.6
09 16.09 СЗ 4 50 км 9/9 600 м
[Cb cap]
+4.6 -3.4 56 +1 +1 1020.7 981.0
18 16.09 ЮВ 1 н/о 8/0
[Ac lent Ci fib]
-1.3 -2.5 92 -4 -4 1025.5 984.8
00 17.09 ЮЗ 1 50 км 10/0
[Ac As]
+1.2 -2.3 77 -0 -0 1025.2 984.9 -2.0
15 18.09 З 5-10
{11}
н/о {ливн. осадки} 10/10 600 м
[Cb cap]
+11.7 +8.7 82 +9 +9 1014.6 976.2

 

Местоположение метеостанции Новая Игирма (Иркутская область, Россия): широта 57.11 долгота 103.90 высота над уровнем моря 324 м.

В архиве по умолчанию представлена погода в Новой Игирме за последнюю неделю. Архивные данные за месяц целиком и за предыдущие месяцы, начиная с января 2011 года, Вы можете получить, выбрав интересующий диапазон дат из раскрывающегося списка и нажав кнопку "Ввод!".


*Определитесь, кто Вы:
робот инопланетянин человек

Внимание! Время в таблицах - всемирное. Для получения местного времени необходимо прибавить поправку, которая равна 8 ч.

Смотрите также архив погоды в соседних городах и на ближайших метеорологических станциях:

Погода в Максимово (Иркутская область, Россия) (60 км)
Погода в Ершово (Иркутская область, Россия) (97 км)
Погода в Усть-Куте (Иркутская область, Россия) (120 км)
Погода в Заярске (Иркутская область, Россия) (122 км)
Погода в Усть-Илимске (Иркутская область, Россия) (124 км)
Погода в Братске (Иркутская область, Россия) (163 км)
Погода в Токме (Иркутская область, Россия) (164 км)
Погода в Орлинге (Иркутская область, Россия) (166 км)
Погода в Калтуке (Иркутская область, Россия) (209 км)
Погода в Казачинске (Иркутская область, Россия) (242 км)

Пояснения к столбцам:

Ветер - указаны скорость ветра в м/с - средняя за 10 мин, порывы в срок и между сроками (в фигурных скобках) и направление, откуда дует ветер: С - северный, СВ - северо-восточный, В - восточный, ЮВ - юго-восточный, Ю - южный, ЮЗ - юго-западный, З - западный, СЗ - северо-западный.
Видимость - горизонтальная дальность видимости в метрах или километрах. При видимости от 1 до 10 км при отсутствии осадков обычно наблюдается дымка, при ухудшении видимости до 1 км и менее - туман. В сухую погоду видимость может ухудшаться дымом, пылью или мглою.
Явления - указаны атмосферные явления, наблюдавшиеся в срок или в последний час перед сроком; фигурными скобками обозначены явления, наблюдавшиеся между сроками (за 1-3 часа до срока); квадратными скобками обозначены град или гололедные отложения с указанием их диаметра в мм.
Облачность - указаны через наклонную черту общая и нижняя облачность в баллах и высота нижней границы облаков в метрах; квадратными скобками обозначены формы облаков: Ci - перистые, Cs - перисто-слоистые, Cc - перисто-кучевые, Ac - высококучевые, As - высокослоистые, Sc - слоисто-кучевые, Ns - слоисто-дождевые, Cu - кучевые, Cb - кучево-дождевые. Подробнее классификацию облаков см. в Атласе облаков (PDF).
T - Температура воздуха - температура, измеренная на высоте 2 м над землей.
Td - Температура точки росы - температура, при понижении до которой содержащийся в воздухе водяной пар достигнет насыщения.
f - Относительная влажность воздуха - влажноcть воздуха, измеренная на высоте 2 м над землей.
Te - Эффективная температура - температура, которую ощущает одетый по сезону человек в тени. Характеристика душности погоды. При расчете учитывается влияние влажности воздуха и скорости ветра на теплоощущения человека.
Tes - Эффективная температура на солнце - температура, которую ощущает человек, с поправкой на солнечный нагрев. Характеристика знойности погоды. Зависит от высоты солнца над горизонтом, облачности и скорости ветра. Ночью, в пасмурную погоду, а также при ветре 12 м/с и более поправка равна нулю.
P - Атмосферное давление - приведенное к уровню моря атмосферное давление.
Po - Атмосферное давление - измеренное на уровне метеостанции атмосферное давление.
Tmin - Минимальная температура - минимум температуры воздуха на высоте 2 м над землей.
Tmax - Максимальная температура - максимум температуры воздуха на высоте 2 м над землей.
R - Количество осадков - Количество выпавших осадков за период времени, мм. При наведении курсора мыши на число - период времени, за который выпало указанное количество осадков.
R24 - Количество осадков - Количество выпавших осадков за 24 часа, мм.
S - Снежный покров - Высота снежного покрова, см. При наведении курсора мыши на число - состояние снежного покрова и степень покрытия местности в баллах.